Regional Weather Roundup
Issued by NWS

Home | Current Version | Previous Version | Graphics & Text | Print | Product List | Glossary On
Versions: 1 2 3 4 5 6 7 8 9 10 11 12 13 14 15 16 17 18 19 20 21 22 23 24 25 26 27 28 29 30 31 32 33 34 35 36 37 38 39 40 41 42 43 44 45 46 47 48 49 50
723
ASUS43 KMPX 250401
RWRMN
WEATHER ROUNDUP FOR MINNESOTA
NATIONAL WEATHER SERVICE TWIN CITIES/CHANHASSEN MN
1100 PM CDT SUN JUL 24 2016


NOTE: "FAIR" INDICATES FEW OR NO CLOUDS BELOW 12,000 FEET WITH NO
SIGNIFICANT WEATHER AND/OR OBSTRUCTIONS TO VISIBILITY. N/A MEANS
CURRENT SKY AND/OR WEATHER CONDITIONS ARE NOT AVAILABLE.

MNZ060>063-068>070-250500-
   Twin Cities Metro

CITY           SKY/WX    TMP DP  RH WIND       PRES   REMARKS
TWIN CITIES    CLEAR     75  63  66 W8        29.97R
ST PAUL        CLEAR     75  63  66 W9        29.96R
CRYSTAL        CLEAR     74  61  63 W8        29.96R
BLAINE         CLEAR     73  63  68 W7        29.96S
LAKEVILLE      CLEAR     68  64  88 SW3       29.98S
EDEN PRAIRIE   CLEAR     72  64  76 W5        29.97R
LAKEVILLE      CLEAR     68  64  88 SW3       29.98S
SOUTH ST PAUL  CLEAR     74  63  66 W5        29.96S
LAKE ELMO      FAIR      70  63  78 W6        29.97S
$$
MNZ001>005-007-008-013>017-022>024-027-028-250500-
   Northwest Minnesota

CITY           SKY/WX    TMP DP  RH WIND       PRES   REMARKS
HALLOCK        CLEAR     66  64  94 W3        29.93R
ROSEAU         CLEAR     66  63  88 W6        29.93R
WARROAD        CLEAR     64  61  88 W3        29.93R
THIEF RVR FALL PTCLDY    66  62  87 W7        29.96R
CROOKSTON      CLEAR     64  61  88 W6        29.96S
FOSSTON        CLEAR     63  57  82 W5        29.97S
DETROIT LAKES  CLEAR     68  57  68 W8        30.01R
MOORHEAD       CLEAR     66  61  82 SW3       29.99S
PARK RAPIDS    CLEAR     64  59  83 W8        29.98R
MAHNOMEN       FAIR      64  59  84 W7        29.98R
$$
MNZ006-009>011-018-025>026-250500-
   North Central Minnesota

CITY           SKY/WX    TMP DP  RH WIND       PRES   REMARKS
BAUDETTE       CLEAR     63  60  90 W6        29.91R
FLAG ISLAND    CLEAR     68  63  83 W10       29.89R
INTL FALLS     CLEAR     64  58  80 W6        29.89R
WASKISH        CLEAR     70  63  78 W12       29.93R
BIG FORK       PTCLDY    64  61  88 CALM      29.92S
LONGVILLE      CLEAR     64  61  88 CALM      29.95S
GRAND RAPIDS   CLEAR     70  60  70 W9        29.95R
CRANE LAKE     CLEAR     66  57  72 W2        29.89R
ORR            CLEAR     66  55  68 W3        29.88R
COOK           CLEAR     64  59  82 W5        29.90S
WALKER         FAIR      65  60  86 W3        29.96R
$$
MNZ012-019>021-037-250500-
   Northeast Minnesota

CITY           SKY/WX    TMP DP  RH WIND       PRES   REMARKS
DULUTH         PTCLDY    69  61  75 W9        29.90R
ELY            CLEAR     66  57  72 W6        29.88R
HIBBING        CLEAR     67  59  75 W7        29.91R
EVELETH        CLEAR     68  58  69 W6        29.91S
DULUTH HARBOR  CLEAR     73  64  73 W10       29.88S
TWO HARBORS    CLEAR     70  63  78 W3        29.86S
SILVER BAY     CLEAR     68  61  77 CALM      29.84S
GRAND MARAIS     N/A     68  60  75 W3        29.79S
G MARAIS ARPRT CLEAR     63  55  77 W5        29.86S
$$
MNZ029>031-032-039>041-046>048-054>057-064-250500-
   West Central Minnesota

CITY           SKY/WX    TMP DP  RH WIND       PRES   REMARKS
FERGUS FALLS   CLEAR     64  61  88 W5        30.01R
WHEATON        CLEAR     68  63  83 SW5       30.03R
MORRIS         CLEAR     66  63  88 W3        30.01R
ALEXANDRIA     CLEAR     66  58  75 W6        30.02R
ELBOW LAKE     FAIR      63  59  89 SW5       30.01S
WADENA         CLEAR     63  57  82 W5        29.99R
GLENWOOD       CLEAR     64  61  88 W7        30.02S
APPLETON       CLEAR     66  61  82 W5        30.02R
BENSON         CLEAR     64  61  88 CALM      30.02R
ORTONVILLE     CLEAR     70  61  73 CALM      30.03R
MADISON        CLEAR     66  63  88 W5        30.03S
WILLMAR        FAIR      66  63  88 W3        30.03R
$$
MNZ033>034-036-042>043-049>051-058-059-250500-
   Central Minnesota

CITY           SKY/WX    TMP DP  RH WIND       PRES   REMARKS
ST CLOUD       CLEAR     69  60  73 W9        29.97R
SAUK CENTRE    FAIR      64  59  84 W6        30.00S
PAYNESVILLE    CLEAR     62  62  97 W3        30.01R
AITKIN         CLEAR     70  57  64 CALM      29.94R
PINE RIVER     CLEAR     66  61  82 W3        30.00R
BRAINERD       CLEAR     71  60  68 W7        29.97R
STAPLES        CLEAR     64  57  77 W5        29.98S
LONG PRAIRIE   FAIR      68  59  73 SW6       30.01R
LITTLE FALLS   CLEAR     68  57  68 W6        29.98R
LITCHFIELD     CLEAR     72  64  78 W3        30.01R
BUFFALO        CLEAR     71  63  76 W6        29.99R
MAPLE LAKE     CLEAR     71  62  73 W3        30.00R
HUTCHINSON     CLEAR     67  65  93 W5        30.02R
$$
MNZ037-044-045-052-053-250500-
   East Central Minnesota

CITY           SKY/WX    TMP DP  RH WIND       PRES   REMARKS
PRINCETON      CLEAR     70  61  73 W5        29.97R
MORA           CLEAR     68  61  77 W3        29.97R
CAMBRIDGE      CLEAR     73  59  60 W6        29.94R
RUSH CITY      CLEAR     68  61  78 W3        29.95R
MOOSE LAKE     PTCLDY    64  61  88 W5        29.92R
HINCKLEY       FAIR      68  63  83 W6        29.94R
CLOQUET        CLEAR     70  59  68 W7        29.92R
MCGREGOR       CLEAR     70  61  73 W3        29.95R
$$
MNZ071>073-080-081-089-090-097-098-250500-
   Southwest Minnesota

CITY           SKY/WX    TMP DP  RH WIND       PRES   REMARKS
MONTEVIDEO     CLEAR     70  61  73 W3        30.04R
GRANITE FALLS  CLEAR     68  65  91 SW6       30.04R
CANBY          CLEAR     69  61  76 W3        30.06R
MARSHALL       CLEAR     67  64  90 W8        30.05R
REDWOOD FALLS  CLEAR     69  62  78 W7        30.02R
OLIVIA         CLEAR     68  63  83 W5        30.01S
PIPESTONE      CLEAR     68  63  83 W3        30.09R
WINDOM         CLEAR     66  63  88 SW5       30.06R
WORTHINGTON    CLEAR     66  62  87 SW6       30.09R
JACKSON        CLEAR     66  63  88 SW3       30.07S
TRACY          CLEAR     70  65  83 W6        30.05R
SLAYTON        HVY RAIN  67  62  84 W5        30.09R
$$
MNZ065>067-074>077-082>085-091>093-250500-
   South Central Minnesota

CITY           SKY/WX    TMP DP  RH WIND       PRES   REMARKS
MANKATO        CLEAR     68  61  77 W7        30.01R
NEW ULM        CLEAR     66  64  94 SW5       30.02R
ST JAMES       CLEAR     64  61  88 SW6       30.04R
FAIRMONT       CLEAR     70  63  78 W7        30.03R
GLENCOE        CLEAR     71  66  84 W8        30.00R
FARIBAULT      CLEAR     68  64  88 SW3       30.00R
OWATONNA       CLEAR     66  63  88 SW6       30.01R
WASECA         CLEAR     63  61  94 SW5       30.03R
ALBERT LEA     CLEAR     68  66  94 CALM      30.02S
$$
MNZ078>079-086>088-094>096-250500-
   Southeast Minnesota

CITY           SKY/WX    TMP DP  RH WIND       PRES   REMARKS
ROCHESTER      PTCLDY    67  64  90 W8        30.01R
RED WING       CLEAR     70  64  83 CALM      29.95S
STANTON        CLEAR     68  64  88 CALM      29.97S
DODGE CENTER   PTCLDY    64  61  88 W7        30.01R
WINONA         CLOUDY    72  64  78 NW5       29.97R
AUSTIN         PTCLDY    70  63  78 W6        30.02R
PRESTON        CLOUDY    68  63  85 W7        30.01R
$$
ABBREVIATIONS USED IN REMARKS
   TC - TEMPERATURES IN CELSIUS
  WCI - WIND CHILL INDEX
   HX - HEAT INDEX
  VSB - VISIBILITY
$$




USA.gov is the U.S. government's official web portal to all federal, state and local government web resources and services.